CFG68 EDDL-HEGN

Flight info

Callsign CFG68
Flight time 4h 34m
Altitude 31000
Route DODEN7Z DODEN Y853 BOMBI DCT DETEV DCT DINKU M867 XERUM DCT BAVAX DCT RADIZ DCT GLOMY DCT PETAK DCT PINDO/N0450F370 DCT PAXIS L607 NABSI P557 OBRAN L321 REXUM M872 FYM/N0448F350 M872 BOPOB
Aircraft A21N/M-SBDE3FGHIJ1J4J7LORVWXYZ/SB2D1G1

Departure

Time 2026-04-30 08:53
Airport Düsseldorf Airport (EDDL)

Arrival

Time 2026-04-30 13:28
Airport Hurghada International Airport (HEGN)
Time Latitude Longitude Altitude Speed Heading
2026-04-30 08:25 51.27601 6.76187 135 ft 0 kts 45°
2026-04-30 08:36 51.27587 6.76164 136 ft 5 kts 45°
2026-04-30 08:36 51.27571 6.76140 136 ft 4 kts 45°
2026-04-30 08:37 51.27552 6.76113 136 ft 4 kts 20°
2026-04-30 08:37 51.27535 6.76113 136 ft 3 kts 338°
2026-04-30 08:37 51.27511 6.76120 135 ft 4 kts 20°
2026-04-30 08:37 51.27495 6.76095 135 ft 4 kts 66°
2026-04-30 08:38 51.27485 6.76057 136 ft 4 kts 69°
2026-04-30 08:38 51.27476 6.76017 136 ft 4 kts 69°
2026-04-30 08:38 51.27472 6.76002 136 ft 0 kts 69°
2026-04-30 08:47 51.27472 6.76003 136 ft 1 kts 69°
2026-04-30 08:47 51.27476 6.76017 136 ft 3 kts 69°
2026-04-30 08:48 51.27487 6.76064 136 ft 6 kts 69°
2026-04-30 08:48 51.27514 6.76123 135 ft 7 kts 23°
2026-04-30 08:48 51.27564 6.76092 136 ft 9 kts 326°
2026-04-30 08:48 51.27620 6.76047 136 ft 9 kts 341°
2026-04-30 08:49 51.27687 6.76042 135 ft 10 kts
2026-04-30 08:49 51.27759 6.76044 134 ft 11 kts
2026-04-30 08:49 51.27833 6.76034 134 ft 11 kts 320°
2026-04-30 08:49 51.27844 6.75946 134 ft 8 kts 269°
2026-04-30 08:50 51.27847 6.75854 134 ft 9 kts 282°
2026-04-30 08:50 51.27860 6.75755 134 ft 10 kts 277°
2026-04-30 08:50 51.27859 6.75645 134 ft 10 kts 251°
2026-04-30 08:50 51.27814 6.75550 133 ft 11 kts 232°
2026-04-30 08:51 51.27770 6.75450 132 ft 11 kts 248°
2026-04-30 08:51 51.27794 6.75388 130 ft 7 kts 334°
2026-04-30 08:51 51.27839 6.75353 130 ft 8 kts 334°
2026-04-30 08:51 51.27889 6.75314 130 ft 8 kts 334°
2026-04-30 08:52 51.27935 6.75277 128 ft 9 kts 334°
2026-04-30 08:52 51.27988 6.75262 128 ft 7 kts 37°
2026-04-30 08:52 51.28016 6.75319 130 ft 7 kts 54°
2026-04-30 08:52 51.28125 6.75552 133 ft 57 kts 53°
2026-04-30 08:53 51.28505 6.76347 134 ft 122 kts 53°
2026-04-30 08:53 51.29133 6.77657 265 ft 163 kts 57°
2026-04-30 08:53 51.29806 6.79125 1073 ft 164 kts 60°
2026-04-30 08:53 51.30450 6.80664 1849 ft 169 kts 61°
2026-04-30 08:54 51.31136 6.82253 2365 ft 179 kts 59°
2026-04-30 08:54 51.31926 6.83848 2853 ft 192 kts 56°
2026-04-30 08:54 51.32830 6.85535 3279 ft 207 kts 58°
2026-04-30 08:54 51.33768 6.87495 3529 ft 230 kts 60°
2026-04-30 08:55 51.34700 6.89689 4002 ft 243 kts 65°
2026-04-30 08:55 51.35254 6.92172 4694 ft 241 kts 86°
2026-04-30 08:55 51.35186 6.94853 5435 ft 243 kts 99°
2026-04-30 08:55 51.34645 6.97425 6155 ft 248 kts 118°
2026-04-30 08:56 51.33628 6.99683 6891 ft 252 kts 126°
2026-04-30 08:56 51.32514 7.01876 7556 ft 256 kts 126°
2026-04-30 08:56 51.31390 7.04103 8238 ft 259 kts 126°
2026-04-30 08:56 51.30260 7.06363 8923 ft 262 kts 126°
2026-04-30 08:57 51.29116 7.08662 9603 ft 266 kts 125°
2026-04-30 08:57 51.27961 7.10988 10291 ft 269 kts 125°
2026-04-30 08:57 51.26801 7.13333 10730 ft 279 kts 125°
2026-04-30 08:57 51.25543 7.15878 10989 ft 297 kts 125°
2026-04-30 08:58 51.24226 7.18541 11209 ft 315 kts 125°
2026-04-30 08:58 51.22851 7.21321 11422 ft 332 kts 126°
2026-04-30 08:58 51.21386 7.24274 11700 ft 346 kts 126°
2026-04-30 08:58 51.19878 7.27309 12228 ft 352 kts 126°
2026-04-30 08:59 51.18349 7.30382 12831 ft 355 kts 126°
2026-04-30 08:59 51.16806 7.33480 13438 ft 359 kts 126°
2026-04-30 08:59 51.15246 7.36614 14041 ft 363 kts 126°
2026-04-30 08:59 51.13666 7.39783 14592 ft 366 kts 126°
2026-04-30 09:00 51.12074 7.42973 15115 ft 370 kts 126°
2026-04-30 09:00 51.10466 7.46190 15649 ft 373 kts 126°
2026-04-30 09:00 51.08839 7.49437 16183 ft 376 kts 126°
2026-04-30 09:00 51.07198 7.52709 16721 ft 379 kts 125°
2026-04-30 09:01 51.05549 7.55994 17252 ft 382 kts 125°
2026-04-30 09:01 51.03906 7.59265 17789 ft 385 kts 125°
2026-04-30 09:01 51.02227 7.62604 18336 ft 388 kts 125°
2026-04-30 09:01 51.00537 7.65957 18847 ft 391 kts 125°
2026-04-30 09:02 50.97047 7.72668 19729 ft 399 kts 131°
2026-04-30 09:02 50.94876 7.75488 20143 ft 408 kts 142°
2026-04-30 09:02 50.92462 7.77909 20560 ft 412 kts 144°
2026-04-30 09:03 50.90000 7.80282 20965 ft 416 kts 144°
2026-04-30 09:03 50.87525 7.82677 21374 ft 419 kts 144°
2026-04-30 09:03 50.85036 7.85105 21795 ft 422 kts 144°
2026-04-30 09:03 50.82533 7.87556 22181 ft 425 kts 144°
2026-04-30 09:04 50.80008 7.90028 22562 ft 428 kts 144°
2026-04-30 09:04 50.77466 7.92516 22941 ft 431 kts 144°
2026-04-30 09:04 50.74908 7.95020 23319 ft 434 kts 144°
2026-04-30 09:04 50.72330 7.97536 23715 ft 437 kts 144°
2026-04-30 09:05 50.69737 8.00067 24075 ft 440 kts 144°
2026-04-30 09:05 50.67153 8.02584 24398 ft 442 kts 144°
2026-04-30 09:05 50.64530 8.05135 24751 ft 444 kts 144°
2026-04-30 09:05 50.61898 8.07692 25162 ft 444 kts 144°
2026-04-30 09:06 50.59355 8.10446 25553 ft 441 kts 137°
2026-04-30 09:06 50.56993 8.13509 25945 ft 440 kts 135°
2026-04-30 09:06 50.54653 8.16599 26340 ft 439 kts 135°
2026-04-30 09:06 50.52310 8.19687 26746 ft 439 kts 135°
2026-04-30 09:07 50.49967 8.22765 27146 ft 439 kts 135°
2026-04-30 09:07 50.47630 8.25826 27554 ft 436 kts 135°
2026-04-30 09:07 50.45468 8.29109 27967 ft 430 kts 127°
2026-04-30 09:07 50.43498 8.32623 28390 ft 428 kts 126°
2026-04-30 09:08 50.41558 8.36153 28841 ft 426 kts 126°
2026-04-30 09:08 50.39616 8.39662 29205 ft 426 kts 126°
2026-04-30 09:08 50.37660 8.43166 29536 ft 427 kts 126°
2026-04-30 09:08 50.35727 8.46609 29847 ft 428 kts 126°
2026-04-30 09:09 50.33752 8.50113 30131 ft 429 kts 126°
2026-04-30 09:09 50.31776 8.53612 30408 ft 430 kts 126°
2026-04-30 09:09 50.29792 8.57121 30644 ft 431 kts 126°
2026-04-30 09:09 50.27800 8.60642 30862 ft 432 kts 126°
2026-04-30 09:10 50.25803 8.64166 31083 ft 433 kts 126°
2026-04-30 09:10 50.23798 8.67697 31305 ft 434 kts 126°
2026-04-30 09:10 50.21793 8.71224 31529 ft 434 kts 126°
2026-04-30 09:10 50.19785 8.74751 31755 ft 435 kts 126°
2026-04-30 09:11 50.17774 8.78277 31986 ft 435 kts 126°
2026-04-30 09:11 50.15764 8.81800 32239 ft 434 kts 126°
2026-04-30 09:11 50.13761 8.85305 32495 ft 432 kts 126°
2026-04-30 09:11 50.11763 8.88797 32758 ft 431 kts 126°
2026-04-30 09:12 50.09770 8.92273 33016 ft 429 kts 126°
2026-04-30 09:12 50.07783 8.95737 33280 ft 427 kts 126°
2026-04-30 09:12 50.05806 8.99179 33493 ft 427 kts 126°
2026-04-30 09:12 50.03839 9.02600 33511 ft 431 kts 126°
2026-04-30 09:13 49.99800 9.09607 33477 ft 436 kts 127°
2026-04-30 09:13 49.95738 9.16628 33470 ft 438 kts 127°
2026-04-30 09:14 49.91656 9.23670 33465 ft 439 kts 127°
2026-04-30 09:14 49.87565 9.30704 33462 ft 438 kts 127°
2026-04-30 09:15 49.83476 9.37720 33454 ft 438 kts 127°
2026-04-30 09:15 49.79385 9.44721 33457 ft 438 kts 127°
2026-04-30 09:16 49.75296 9.51700 33455 ft 438 kts 127°
2026-04-30 09:16 49.71216 9.58641 33459 ft 439 kts 127°
2026-04-30 09:17 49.67105 9.65615 33444 ft 439 kts 127°
2026-04-30 09:17 49.62991 9.72583 33442 ft 439 kts 127°
2026-04-30 09:18 49.58868 9.79539 33440 ft 439 kts 127°
2026-04-30 09:18 49.54739 9.86491 33441 ft 439 kts 127°
2026-04-30 09:19 49.50641 9.93370 33452 ft 439 kts 127°
2026-04-30 09:19 49.46510 10.00289 33442 ft 439 kts 127°
2026-04-30 09:20 49.42372 10.07196 33437 ft 438 kts 127°
2026-04-30 09:20 49.38232 10.14090 33438 ft 439 kts 127°
2026-04-30 09:21 49.34086 10.20973 33442 ft 439 kts 127°
2026-04-30 09:21 49.29942 10.27840 33462 ft 439 kts 127°
2026-04-30 09:22 49.25781 10.34712 33473 ft 440 kts 127°
2026-04-30 09:22 49.21035 10.40761 33464 ft 453 kts 142°
2026-04-30 09:23 49.15598 10.45672 33465 ft 454 kts 143°
2026-04-30 09:23 49.10196 10.50531 33473 ft 453 kts 143°
2026-04-30 09:24 49.04769 10.55448 33472 ft 454 kts 143°
2026-04-30 09:24 48.99345 10.60355 33459 ft 453 kts 143°
2026-04-30 09:25 48.93917 10.65260 33461 ft 454 kts 143°
2026-04-30 09:25 48.88478 10.70158 33456 ft 454 kts 143°
2026-04-30 09:26 48.83038 10.75059 33443 ft 453 kts 141°
2026-04-30 09:26 48.78380 10.81192 33452 ft 439 kts 126°
2026-04-30 09:27 48.74324 10.88114 33418 ft 439 kts 125°
2026-04-30 09:27 48.70238 10.95009 33448 ft 439 kts 126°
2026-04-30 09:28 48.66161 11.01827 33435 ft 440 kts 126°
2026-04-30 09:28 48.62044 11.08684 33432 ft 440 kts 126°
2026-04-30 09:29 48.57923 11.15529 33439 ft 440 kts 126°
2026-04-30 09:29 48.53802 11.22360 33426 ft 440 kts 126°
2026-04-30 09:30 48.49662 11.29204 33409 ft 441 kts 126°
2026-04-30 09:30 48.45518 11.36043 33423 ft 442 kts 126°
2026-04-30 09:31 48.41362 11.42873 33422 ft 443 kts 126°
2026-04-30 09:31 48.37195 11.49711 33428 ft 443 kts 126°
2026-04-30 09:32 48.33058 11.56482 33431 ft 443 kts 126°
2026-04-30 09:32 48.28887 11.63293 33435 ft 443 kts 126°
2026-04-30 09:33 48.24567 11.69929 33450 ft 447 kts 130°
2026-04-30 09:33 48.19971 11.76239 33430 ft 448 kts 130°
2026-04-30 09:34 48.15370 11.82536 33424 ft 448 kts 130°
2026-04-30 09:34 48.10772 11.88828 33420 ft 448 kts 130°
2026-04-30 09:35 48.06947 11.94053 33418 ft 448 kts 130°
2026-04-30 09:35 48.01597 12.01354 33434 ft 449 kts 130°
2026-04-30 09:36 47.96971 12.07643 33415 ft 450 kts 130°
2026-04-30 09:36 47.93083 12.12915 33413 ft 451 kts 131°
2026-04-30 09:37 47.88441 12.19195 33405 ft 451 kts 131°
2026-04-30 09:37 47.83819 12.25428 33402 ft 451 kts 131°
2026-04-30 09:38 47.79177 12.31687 33386 ft 450 kts 131°
2026-04-30 09:38 47.74520 12.37939 33379 ft 451 kts 131°
2026-04-30 09:39 47.69847 12.44195 33375 ft 452 kts 131°
2026-04-30 09:39 47.65183 12.50427 33370 ft 452 kts 131°
2026-04-30 09:40 47.60549 12.56742 33360 ft 451 kts 130°
2026-04-30 09:40 47.55972 12.63115 33397 ft 452 kts 130°
2026-04-30 09:41 47.51378 12.69501 33351 ft 453 kts 130°
2026-04-30 09:41 47.46786 12.75870 33339 ft 456 kts 131°
2026-04-30 09:42 47.42160 12.82262 33333 ft 456 kts 131°
2026-04-30 09:42 47.37531 12.88654 33323 ft 456 kts 131°
2026-04-30 09:43 47.32894 12.95033 33311 ft 455 kts 131°
2026-04-30 09:43 47.28249 13.01415 33315 ft 457 kts 131°
2026-04-30 09:44 47.23586 13.07801 33310 ft 460 kts 132°
2026-04-30 09:44 47.18889 13.14215 33300 ft 460 kts 132°
2026-04-30 09:45 47.14198 13.20600 33307 ft 460 kts 132°
2026-04-30 09:45 47.09500 13.26982 33341 ft 460 kts 132°
2026-04-30 09:46 47.04790 13.33369 33320 ft 462 kts 133°
2026-04-30 09:46 47.00055 13.39766 33323 ft 463 kts 133°
2026-04-30 09:47 46.95314 13.46160 33320 ft 464 kts 133°
2026-04-30 09:47 46.90586 13.52519 33342 ft 464 kts 133°
2026-04-30 09:48 46.85826 13.58905 33368 ft 464 kts 133°
2026-04-30 09:48 46.81049 13.65300 33356 ft 466 kts 134°
2026-04-30 09:49 46.76262 13.71688 33352 ft 466 kts 134°
2026-04-30 09:49 46.71450 13.78094 33366 ft 468 kts 134°
2026-04-30 09:50 46.66661 13.84455 33366 ft 469 kts 134°
2026-04-30 09:50 46.61838 13.90844 33395 ft 469 kts 134°
2026-04-30 09:51 46.57005 13.97234 33387 ft 469 kts 134°
2026-04-30 09:51 46.52165 14.03613 33392 ft 469 kts 134°
2026-04-30 09:52 46.47312 14.09991 33408 ft 471 kts 135°
2026-04-30 09:52 46.42451 14.16365 33410 ft 471 kts 135°
2026-04-30 09:53 46.37604 14.22708 33409 ft 472 kts 135°
2026-04-30 09:53 46.32715 14.29088 33407 ft 473 kts 135°
2026-04-30 09:54 46.27833 14.35442 33408 ft 472 kts 135°
2026-04-30 09:54 46.22943 14.41791 33407 ft 472 kts 136°
2026-04-30 09:55 46.18041 14.48140 33408 ft 472 kts 136°
2026-04-30 09:55 46.13168 14.54437 33413 ft 474 kts 136°
2026-04-30 09:56 46.08247 14.60776 33407 ft 474 kts 136°
2026-04-30 09:56 46.03324 14.67103 33404 ft 474 kts 136°
2026-04-30 09:57 45.98388 14.73435 33401 ft 477 kts 137°
2026-04-30 09:57 45.93417 14.79773 33424 ft 477 kts 137°
2026-04-30 09:58 45.88501 14.86048 33420 ft 476 kts 137°
2026-04-30 09:58 45.83546 14.92352 33417 ft 476 kts 137°
2026-04-30 09:59 45.73627 15.04937 33422 ft 476 kts 137°
2026-04-30 10:00 45.66178 15.14349 33430 ft 477 kts 138°
2026-04-30 10:01 45.58736 15.23709 33428 ft 476 kts 138°
2026-04-30 10:02 45.51267 15.33063 33416 ft 477 kts 139°
2026-04-30 10:02 45.46263 15.39315 33418 ft 478 kts 139°
2026-04-30 10:03 45.41245 15.45562 33417 ft 478 kts 139°
2026-04-30 10:03 45.36240 15.51793 33418 ft 478 kts 139°
2026-04-30 10:04 45.31224 15.58019 33412 ft 478 kts 139°
2026-04-30 10:04 45.26233 15.64198 33417 ft 482 kts 139°
2026-04-30 10:05 45.21158 15.70463 33407 ft 483 kts 139°
2026-04-30 10:05 45.16077 15.76715 33407 ft 483 kts 139°
2026-04-30 10:06 45.10993 15.82954 33399 ft 483 kts 139°
2026-04-30 10:06 45.05918 15.89181 33400 ft 483 kts 139°
2026-04-30 10:07 45.00839 15.95386 33391 ft 487 kts 140°
2026-04-30 10:07 44.95712 16.01636 33394 ft 487 kts 140°
2026-04-30 10:08 44.90581 16.07880 33383 ft 486 kts 140°
2026-04-30 10:08 44.85455 16.14102 33369 ft 486 kts 140°
2026-04-30 10:09 44.80320 16.20322 33351 ft 487 kts 141°
2026-04-30 10:09 44.75197 16.26506 33348 ft 489 kts 141°
2026-04-30 10:10 44.70025 16.32732 33365 ft 489 kts 141°
2026-04-30 10:10 44.64858 16.38945 33352 ft 489 kts 141°
2026-04-30 10:11 44.59682 16.45150 33349 ft 490 kts 141°
2026-04-30 10:11 44.54493 16.51352 33322 ft 491 kts 142°
2026-04-30 10:12 44.49277 16.57577 33334 ft 492 kts 142°
2026-04-30 10:12 44.44058 16.63787 33331 ft 492 kts 142°
2026-04-30 10:13 44.38834 16.69989 33353 ft 492 kts 142°
2026-04-30 10:13 44.33640 16.76132 33316 ft 492 kts 142°
2026-04-30 10:14 44.28415 16.82308 33308 ft 492 kts 142°
2026-04-30 10:14 44.20550 16.91570 33312 ft 493 kts 143°
2026-04-30 10:15 44.15307 16.97725 33310 ft 492 kts 143°
2026-04-30 10:15 44.10067 17.03862 33297 ft 492 kts 143°
2026-04-30 10:16 44.04845 17.09964 33266 ft 495 kts 143°
2026-04-30 10:17 43.96936 17.19184 33263 ft 495 kts 143°
2026-04-30 10:17 43.89015 17.28375 33254 ft 495 kts 144°
2026-04-30 10:18 43.83727 17.34494 33235 ft 496 kts 144°
2026-04-30 10:19 43.75764 17.43687 33233 ft 497 kts 144°
2026-04-30 10:19 43.70448 17.49801 33222 ft 497 kts 145°
2026-04-30 10:20 43.65131 17.55906 33227 ft 497 kts 145°
2026-04-30 10:20 43.57166 17.65017 33209 ft 499 kts 146°
2026-04-30 10:21 43.51578 17.70610 33220 ft 495 kts 151°
2026-04-30 10:21 43.45910 17.76007 33229 ft 495 kts 152°
2026-04-30 10:22 43.40247 17.81395 33182 ft 495 kts 152°
2026-04-30 10:22 43.34581 17.86785 33175 ft 495 kts 152°
2026-04-30 10:23 43.28911 17.92166 33174 ft 495 kts 152°
2026-04-30 10:23 43.23233 17.97540 33171 ft 495 kts 152°
2026-04-30 10:24 43.18517 18.01992 33174 ft 495 kts 152°
2026-04-30 10:24 43.11894 18.08231 33164 ft 500 kts 153°
2026-04-30 10:25 43.07114 18.12725 33188 ft 501 kts 153°
2026-04-30 10:25 43.01374 18.18115 33186 ft 500 kts 153°
2026-04-30 10:26 42.95621 18.23495 33179 ft 500 kts 153°
2026-04-30 10:26 42.88944 18.29733 33155 ft 501 kts 153°
2026-04-30 10:27 42.84126 18.34221 33151 ft 501 kts 153°
2026-04-30 10:27 42.78368 18.39575 33136 ft 501 kts 153°
2026-04-30 10:28 42.72649 18.44880 33139 ft 499 kts 153°
2026-04-30 10:28 42.66943 18.50160 33117 ft 495 kts 153°
2026-04-30 10:29 42.61243 18.55421 33128 ft 495 kts 153°
2026-04-30 10:29 42.55549 18.60665 33145 ft 494 kts 153°
2026-04-30 10:30 42.49851 18.65902 33138 ft 494 kts 153°
2026-04-30 10:30 42.44165 18.71119 33137 ft 494 kts 153°
2026-04-30 10:31 42.38466 18.76335 33146 ft 494 kts 153°
2026-04-30 10:31 42.32770 18.81536 33140 ft 493 kts 152°
2026-04-30 10:32 42.27118 18.86685 33139 ft 493 kts 153°
2026-04-30 10:32 42.21413 18.91870 33130 ft 493 kts 152°
2026-04-30 10:33 42.15702 18.97050 33123 ft 493 kts 152°
2026-04-30 10:33 42.10034 19.02177 33121 ft 493 kts 152°
2026-04-30 10:34 42.04331 19.07327 33117 ft 493 kts 152°
2026-04-30 10:34 41.98629 19.12461 33106 ft 492 kts 152°
2026-04-30 10:35 41.92944 19.17573 33117 ft 491 kts 152°
2026-04-30 10:35 41.87263 19.22670 33114 ft 491 kts 152°
2026-04-30 10:36 41.81614 19.27725 33119 ft 491 kts 152°
2026-04-30 10:36 41.76107 19.33189 33080 ft 497 kts 141°
2026-04-30 10:37 41.71158 19.39632 33101 ft 496 kts 140°
2026-04-30 10:37 41.66224 19.46092 33110 ft 496 kts 140°
2026-04-30 10:38 41.61271 19.52514 33103 ft 496 kts 141°
2026-04-30 10:38 41.56325 19.58923 33098 ft 495 kts 141°
2026-04-30 10:39 41.51371 19.65325 33069 ft 495 kts 141°
2026-04-30 10:39 41.46427 19.71690 33104 ft 493 kts 141°
2026-04-30 10:40 41.41484 19.78031 33113 ft 493 kts 141°
2026-04-30 10:40 41.36554 19.84354 33115 ft 496 kts 140°
2026-04-30 10:41 41.31575 19.90744 33106 ft 497 kts 140°
2026-04-30 10:41 41.26593 19.97121 33093 ft 496 kts 140°
2026-04-30 10:42 41.21607 20.03463 33085 ft 496 kts 140°
2026-04-30 10:42 41.16625 20.09803 33086 ft 495 kts 140°
2026-04-30 10:43 41.11675 20.16088 33080 ft 495 kts 140°
2026-04-30 10:43 41.06704 20.22389 33077 ft 494 kts 140°
2026-04-30 10:44 41.01720 20.28667 33065 ft 494 kts 140°
2026-04-30 10:44 40.96741 20.34943 33066 ft 495 kts 140°
2026-04-30 10:45 40.91743 20.41224 33059 ft 495 kts 140°
2026-04-30 10:45 40.86746 20.47501 33050 ft 495 kts 140°
2026-04-30 10:46 40.81756 20.53750 33044 ft 494 kts 140°
2026-04-30 10:46 40.76795 20.59949 33046 ft 494 kts 140°
2026-04-30 10:47 40.71791 20.66186 32996 ft 494 kts 140°
2026-04-30 10:47 40.66837 20.72351 33017 ft 488 kts 140°
2026-04-30 10:48 40.61895 20.78487 33020 ft 488 kts 140°
2026-04-30 10:48 40.56945 20.84618 33022 ft 486 kts 140°
2026-04-30 10:49 40.52024 20.90703 33005 ft 486 kts 140°
2026-04-30 10:49 40.47045 20.96708 33013 ft 484 kts 143°
2026-04-30 10:50 40.41903 21.02354 33002 ft 482 kts 143°
2026-04-30 10:50 40.36741 21.07992 33012 ft 483 kts 143°
2026-04-30 10:51 40.31580 21.13624 33007 ft 483 kts 143°
2026-04-30 10:51 40.26427 21.19240 33009 ft 481 kts 143°
2026-04-30 10:52 40.21273 21.24840 33008 ft 481 kts 143°
2026-04-30 10:52 40.16126 21.30425 32993 ft 480 kts 143°
2026-04-30 10:53 40.11009 21.35965 33001 ft 480 kts 143°
2026-04-30 10:53 40.05858 21.41529 33003 ft 480 kts 143°
2026-04-30 10:54 40.00707 21.47081 33005 ft 480 kts 143°
2026-04-30 10:54 39.95553 21.52627 33011 ft 480 kts 143°
2026-04-30 10:55 39.90403 21.58158 32994 ft 479 kts 143°
2026-04-30 10:55 39.85253 21.63673 33018 ft 480 kts 143°
2026-04-30 10:56 39.80096 21.69187 33019 ft 480 kts 143°
2026-04-30 10:56 39.74937 21.74692 33018 ft 480 kts 143°
2026-04-30 10:57 39.69777 21.80192 33019 ft 479 kts 143°
2026-04-30 10:57 39.64639 21.85655 33012 ft 474 kts 144°
2026-04-30 10:58 39.59534 21.91067 33021 ft 474 kts 144°
2026-04-30 10:58 39.54431 21.96472 33013 ft 474 kts 144°
2026-04-30 10:59 39.49349 22.01834 33015 ft 474 kts 144°
2026-04-30 10:59 39.44240 22.07218 33011 ft 474 kts 144°
2026-04-30 11:00 39.39130 22.12606 32994 ft 474 kts 144°
2026-04-30 11:00 39.34028 22.17968 33010 ft 472 kts 144°
2026-04-30 11:01 39.28925 22.23315 33008 ft 472 kts 144°
2026-04-30 11:01 39.23828 22.28652 33011 ft 471 kts 144°
2026-04-30 11:02 39.18724 22.33979 33014 ft 472 kts 144°
2026-04-30 11:02 39.13655 22.39265 33013 ft 471 kts 144°
2026-04-30 11:03 39.08562 22.44568 33013 ft 470 kts 144°
2026-04-30 11:04 39.00917 22.52503 33026 ft 470 kts 144°
2026-04-30 11:04 38.95822 22.57781 33025 ft 470 kts 144°
2026-04-30 11:05 38.90727 22.63047 33028 ft 470 kts 144°
2026-04-30 11:05 38.85632 22.68308 33013 ft 470 kts 145°
2026-04-30 11:06 38.80530 22.73556 33026 ft 470 kts 145°
2026-04-30 11:06 38.75459 22.78770 33024 ft 470 kts 145°
2026-04-30 11:07 38.70361 22.84000 33030 ft 469 kts 145°
2026-04-30 11:07 38.65253 22.89229 33030 ft 469 kts 145°
2026-04-30 11:08 38.60151 22.94443 33032 ft 468 kts 145°
2026-04-30 11:08 38.55049 22.99648 33022 ft 470 kts 145°
2026-04-30 11:09 38.49933 23.04861 33030 ft 470 kts 145°
2026-04-30 11:09 38.44847 23.10041 33029 ft 470 kts 145°
2026-04-30 11:10 38.39724 23.15231 33029 ft 470 kts 145°
2026-04-30 11:10 38.34594 23.20430 33029 ft 471 kts 145°
2026-04-30 11:11 38.29466 23.25620 33028 ft 470 kts 145°
2026-04-30 11:11 38.24331 23.30794 33029 ft 471 kts 145°
2026-04-30 11:12 38.19195 23.35959 33029 ft 471 kts 145°
2026-04-30 11:12 38.14093 23.41082 33032 ft 470 kts 145°
2026-04-30 11:13 38.08963 23.46235 33025 ft 470 kts 145°
2026-04-30 11:13 38.03822 23.51380 33012 ft 471 kts 146°
2026-04-30 11:14 37.99537 23.55667 33023 ft 472 kts 146°
2026-04-30 11:14 37.94372 23.60837 33041 ft 472 kts 146°
2026-04-30 11:15 37.89209 23.65984 33050 ft 472 kts 146°
2026-04-30 11:15 37.84045 23.71117 33050 ft 472 kts 146°
2026-04-30 11:16 37.78910 23.76220 33047 ft 472 kts 146°
2026-04-30 11:16 37.73729 23.81347 33044 ft 472 kts 146°
2026-04-30 11:17 37.68558 23.86471 33043 ft 473 kts 146°
2026-04-30 11:17 37.63379 23.91574 33044 ft 472 kts 146°
2026-04-30 11:18 37.58194 23.96671 33051 ft 472 kts 146°
2026-04-30 11:18 37.50428 24.04299 33054 ft 472 kts 146°
2026-04-30 11:19 37.45285 24.09357 33035 ft 473 kts 146°
2026-04-30 11:19 37.40081 24.14451 33046 ft 473 kts 146°
2026-04-30 11:20 37.34883 24.19528 33044 ft 473 kts 146°
2026-04-30 11:20 37.29683 24.24599 33044 ft 473 kts 146°
2026-04-30 11:21 37.24481 24.29659 33042 ft 473 kts 146°
2026-04-30 11:21 37.19285 24.34712 33033 ft 472 kts 146°
2026-04-30 11:22 37.14098 24.39745 33035 ft 472 kts 146°
2026-04-30 11:22 37.08894 24.44778 33041 ft 473 kts 146°
2026-04-30 11:23 37.03718 24.49784 33041 ft 473 kts 146°
2026-04-30 11:24 36.95908 24.57320 33047 ft 473 kts 146°
2026-04-30 11:24 36.90698 24.62336 33036 ft 471 kts 146°
2026-04-30 11:25 36.82916 24.69820 33047 ft 471 kts 146°
2026-04-30 11:26 36.72523 24.79773 33047 ft 470 kts 146°
2026-04-30 11:26 36.67368 24.84698 33048 ft 470 kts 146°
2026-04-30 11:27 36.62181 24.89645 33036 ft 469 kts 146°
2026-04-30 11:27 36.56997 24.94579 33040 ft 468 kts 146°
2026-04-30 11:28 36.49222 25.01953 33039 ft 469 kts 147°
2026-04-30 11:29 36.44023 25.06884 33039 ft 471 kts 147°
2026-04-30 11:29 36.36209 25.14279 33030 ft 471 kts 147°
2026-04-30 11:30 36.28400 25.21655 33044 ft 470 kts 147°
2026-04-30 11:31 36.23197 25.26554 33047 ft 469 kts 147°
2026-04-30 11:31 36.18028 25.31415 33049 ft 469 kts 147°
2026-04-30 11:32 36.12815 25.36308 33047 ft 471 kts 147°
2026-04-30 11:32 36.07589 25.41200 33035 ft 471 kts 147°
2026-04-30 11:33 35.99726 25.48527 33046 ft 472 kts 147°
2026-04-30 11:33 35.94492 25.53407 33047 ft 472 kts 147°
2026-04-30 11:34 35.89244 25.58288 33050 ft 472 kts 147°
2026-04-30 11:34 35.84001 25.63161 33269 ft 472 kts 147°
2026-04-30 11:35 35.81414 25.65560 33492 ft 472 kts 147°
2026-04-30 11:35 35.78785 25.67994 33677 ft 472 kts 147°
2026-04-30 11:35 35.76154 25.70428 33805 ft 474 kts 148°
2026-04-30 11:35 35.73509 25.72864 33948 ft 475 kts 148°
2026-04-30 11:36 35.70859 25.75311 34108 ft 476 kts 147°
2026-04-30 11:36 35.68204 25.77759 34257 ft 476 kts 148°
2026-04-30 11:36 35.65552 25.80202 34396 ft 477 kts 148°
2026-04-30 11:36 35.62883 25.82663 34528 ft 478 kts 148°
2026-04-30 11:37 35.60223 25.85118 34652 ft 479 kts 148°
2026-04-30 11:37 35.57559 25.87571 34770 ft 479 kts 148°
2026-04-30 11:37 35.54884 25.90033 34895 ft 480 kts 148°
2026-04-30 11:37 35.52245 25.92460 35015 ft 481 kts 148°
2026-04-30 11:38 35.46871 25.97390 35083 ft 482 kts 148°
2026-04-30 11:38 35.41496 26.02318 35061 ft 482 kts 148°
2026-04-30 11:39 35.36114 26.07245 35054 ft 482 kts 148°
2026-04-30 11:39 35.30727 26.12161 35057 ft 482 kts 148°
2026-04-30 11:40 35.25347 26.17066 35063 ft 482 kts 148°
2026-04-30 11:40 35.19990 26.21947 35050 ft 484 kts 148°
2026-04-30 11:41 35.14559 26.26879 35056 ft 487 kts 148°
2026-04-30 11:41 35.09126 26.31812 35060 ft 486 kts 148°
2026-04-30 11:42 35.03694 26.36732 35060 ft 486 kts 148°
2026-04-30 11:42 34.98262 26.41642 35056 ft 486 kts 148°
2026-04-30 11:43 34.92829 26.46547 35055 ft 486 kts 148°
2026-04-30 11:43 34.87364 26.51467 35046 ft 491 kts 148°
2026-04-30 11:44 34.81862 26.56418 35055 ft 492 kts 148°
2026-04-30 11:44 34.76370 26.61353 35057 ft 490 kts 148°
2026-04-30 11:45 34.70921 26.66234 35056 ft 490 kts 148°
2026-04-30 11:45 34.65430 26.71151 35057 ft 490 kts 148°
2026-04-30 11:46 34.59931 26.76064 35043 ft 493 kts 148°
2026-04-30 11:46 34.54365 26.81026 35058 ft 496 kts 148°
2026-04-30 11:47 34.48796 26.85988 35057 ft 497 kts 148°
2026-04-30 11:47 34.43238 26.90930 35060 ft 493 kts 148°
2026-04-30 11:48 34.37742 26.95809 35059 ft 493 kts 148°
2026-04-30 11:48 34.32207 27.00714 35046 ft 494 kts 148°
2026-04-30 11:49 34.26627 27.05650 35058 ft 498 kts 148°
2026-04-30 11:49 34.21032 27.10593 35058 ft 498 kts 148°
2026-04-30 11:50 34.15433 27.15527 35061 ft 498 kts 148°
2026-04-30 11:50 34.09876 27.20417 35060 ft 495 kts 148°
2026-04-30 11:51 34.04310 27.25310 35049 ft 495 kts 148°
2026-04-30 11:51 33.98721 27.30215 35058 ft 498 kts 148°
2026-04-30 11:52 33.93072 27.35027 35062 ft 496 kts 150°
2026-04-30 11:52 33.87330 27.39665 35062 ft 496 kts 151°
2026-04-30 11:53 33.81587 27.44287 35059 ft 496 kts 151°
2026-04-30 11:53 33.75841 27.48908 35061 ft 496 kts 151°
2026-04-30 11:54 33.70105 27.53519 35059 ft 498 kts 151°
2026-04-30 11:54 33.64333 27.58151 35066 ft 499 kts 151°
2026-04-30 11:55 33.58565 27.62771 35059 ft 499 kts 151°
2026-04-30 11:55 33.52826 27.67358 35064 ft 499 kts 151°
2026-04-30 11:56 33.47050 27.71967 35065 ft 499 kts 151°
2026-04-30 11:56 33.41243 27.76593 35056 ft 504 kts 151°
2026-04-30 11:57 33.35390 27.81243 35060 ft 505 kts 151°
2026-04-30 11:57 33.29538 27.85896 35062 ft 505 kts 151°
2026-04-30 11:58 33.23684 27.90545 35061 ft 505 kts 151°
2026-04-30 11:58 33.17822 27.95188 35064 ft 505 kts 151°
2026-04-30 11:59 33.11958 27.99823 35056 ft 506 kts 151°
2026-04-30 11:59 33.06088 28.04457 35062 ft 506 kts 151°
2026-04-30 12:00 33.00221 28.09081 35065 ft 505 kts 151°
2026-04-30 12:00 32.94385 28.13672 35067 ft 505 kts 151°
2026-04-30 12:01 32.88521 28.18277 35063 ft 505 kts 151°
2026-04-30 12:01 32.82646 28.22883 35053 ft 506 kts 152°
2026-04-30 12:02 32.76761 28.27490 35061 ft 506 kts 152°
2026-04-30 12:02 32.71862 28.31295 35062 ft 506 kts 152°
2026-04-30 12:03 32.63015 28.38184 35067 ft 506 kts 152°
2026-04-30 12:04 32.57125 28.42771 35062 ft 505 kts 152°
2026-04-30 12:04 32.51251 28.47338 35062 ft 505 kts 152°
2026-04-30 12:05 32.45399 28.51880 35060 ft 505 kts 152°
2026-04-30 12:05 32.39519 28.56435 35063 ft 505 kts 152°
2026-04-30 12:06 32.33630 28.60991 35061 ft 505 kts 152°
2026-04-30 12:06 32.27741 28.65539 35037 ft 506 kts 152°
2026-04-30 12:07 32.21845 28.70086 35061 ft 506 kts 152°
2026-04-30 12:07 32.15950 28.74626 35063 ft 506 kts 152°
2026-04-30 12:08 32.10046 28.79166 35064 ft 505 kts 152°
2026-04-30 12:08 32.04189 28.83660 35065 ft 505 kts 152°
2026-04-30 12:09 31.98291 28.88178 35034 ft 506 kts 152°
2026-04-30 12:09 31.92380 28.92691 35052 ft 506 kts 153°
2026-04-30 12:10 31.86421 28.97098 35062 ft 506 kts 153°
2026-04-30 12:10 31.80493 29.01576 35059 ft 506 kts 152°
2026-04-30 12:11 31.74500 29.05736 35059 ft 497 kts 163°
2026-04-30 12:11 31.71250 29.06966 35058 ft 485 kts 176°
2026-04-30 12:11 31.67948 29.07414 35041 ft 474 kts 187°
2026-04-30 12:12 31.61395 29.07433 35062 ft 469 kts 189°
2026-04-30 12:12 31.54855 29.07454 35067 ft 470 kts 188°
2026-04-30 12:13 31.48312 29.07539 35066 ft 470 kts 188°
2026-04-30 12:13 31.41763 29.07635 35048 ft 469 kts 188°
2026-04-30 12:14 31.35274 29.07728 35061 ft 469 kts 188°
2026-04-30 12:14 31.28736 29.07821 35061 ft 470 kts 188°
2026-04-30 12:15 31.22205 29.07914 35063 ft 470 kts 188°
2026-04-30 12:15 31.15684 29.07887 35048 ft 467 kts 189°
2026-04-30 12:16 31.09171 29.07916 35054 ft 468 kts 188°
2026-04-30 12:16 31.02689 29.08009 35063 ft 469 kts 188°
2026-04-30 12:17 30.92889 29.08322 35049 ft 469 kts 187°
2026-04-30 12:17 30.86368 29.08437 35052 ft 468 kts 188°
2026-04-30 12:18 30.79855 29.08529 35053 ft 468 kts 188°
2026-04-30 12:18 30.73341 29.08621 35049 ft 468 kts 188°
2026-04-30 12:19 30.66876 29.08714 35035 ft 468 kts 188°
2026-04-30 12:19 30.60358 29.08807 35039 ft 468 kts 188°
2026-04-30 12:20 30.53827 29.09168 35036 ft 479 kts 178°
2026-04-30 12:20 30.50577 29.10221 35032 ft 493 kts 165°
2026-04-30 12:20 30.47522 29.12133 35031 ft 506 kts 150°
2026-04-30 12:21 30.44826 29.14801 35017 ft 513 kts 139°
2026-04-30 12:21 30.42359 29.17798 35033 ft 514 kts 136°
2026-04-30 12:21 30.37489 29.23863 35029 ft 513 kts 137°
2026-04-30 12:22 30.32538 29.29820 35022 ft 513 kts 138°
2026-04-30 12:22 30.27604 29.35711 35023 ft 513 kts 138°
2026-04-30 12:23 30.22640 29.41636 35024 ft 513 kts 138°
2026-04-30 12:23 30.17677 29.47555 35024 ft 513 kts 138°
2026-04-30 12:24 30.12711 29.53465 35024 ft 512 kts 138°
2026-04-30 12:24 30.07736 29.59378 35015 ft 512 kts 138°
2026-04-30 12:25 30.02769 29.65272 35023 ft 512 kts 138°
2026-04-30 12:25 29.97801 29.71159 35024 ft 512 kts 138°
2026-04-30 12:26 29.92823 29.77046 35020 ft 512 kts 138°
2026-04-30 12:26 29.87843 29.82927 35023 ft 512 kts 138°
2026-04-30 12:27 29.82888 29.88766 35023 ft 512 kts 139°
2026-04-30 12:27 29.77538 29.94132 35024 ft 510 kts 143°
2026-04-30 12:28 29.72407 29.99800 35024 ft 512 kts 139°
2026-04-30 12:28 29.67425 30.05672 35017 ft 512 kts 138°
2026-04-30 12:29 29.62439 30.11534 35014 ft 512 kts 139°
2026-04-30 12:29 29.57453 30.17371 35018 ft 511 kts 139°
2026-04-30 12:30 29.52499 30.23159 35018 ft 511 kts 139°
2026-04-30 12:30 29.47509 30.28981 35014 ft 511 kts 139°
2026-04-30 12:31 29.42518 30.34793 35012 ft 511 kts 139°
2026-04-30 12:31 29.37670 30.40772 35002 ft 513 kts 134°
2026-04-30 12:32 29.33065 30.47036 35010 ft 513 kts 134°
2026-04-30 12:32 29.28240 30.53071 35011 ft 512 kts 138°
2026-04-30 12:33 29.23301 30.58934 35018 ft 511 kts 138°
2026-04-30 12:33 29.18398 30.64748 35018 ft 511 kts 138°
2026-04-30 12:34 29.13456 30.70618 35016 ft 512 kts 138°
2026-04-30 12:34 29.08516 30.76474 35027 ft 512 kts 138°
2026-04-30 12:35 29.03574 30.82331 35008 ft 512 kts 138°
2026-04-30 12:35 28.98627 30.88181 35029 ft 512 kts 138°
2026-04-30 12:36 28.93672 30.94032 35029 ft 512 kts 138°
2026-04-30 12:36 28.88718 30.99871 35027 ft 512 kts 138°
2026-04-30 12:37 28.83762 31.05706 35027 ft 512 kts 138°
2026-04-30 12:37 28.78801 31.11534 35026 ft 512 kts 138°
2026-04-30 12:38 28.73842 31.17353 35024 ft 512 kts 138°
2026-04-30 12:38 28.68949 31.23182 35021 ft 513 kts 136°
2026-04-30 12:39 28.64160 31.29213 35029 ft 514 kts 136°
2026-04-30 12:39 28.59366 31.35260 35038 ft 514 kts 136°
2026-04-30 12:40 28.54562 31.41301 35046 ft 514 kts 136°
2026-04-30 12:40 28.49762 31.47323 35053 ft 514 kts 136°
2026-04-30 12:41 28.44962 31.53343 35048 ft 514 kts 136°
2026-04-30 12:41 28.40190 31.59316 35048 ft 513 kts 136°
2026-04-30 12:42 28.35391 31.65314 35044 ft 513 kts 136°
2026-04-30 12:42 28.30583 31.71314 35025 ft 515 kts 136°
2026-04-30 12:43 28.25757 31.77326 35035 ft 516 kts 136°
2026-04-30 12:43 28.20916 31.83352 35036 ft 516 kts 137°
2026-04-30 12:44 28.16072 31.89370 35032 ft 516 kts 137°
2026-04-30 12:44 28.11227 31.95381 34870 ft 517 kts 137°
2026-04-30 12:45 28.08806 31.98382 34712 ft 517 kts 136°
2026-04-30 12:45 28.06377 32.01393 34551 ft 518 kts 136°
2026-04-30 12:45 28.04011 32.04414 34373 ft 520 kts 132°
2026-04-30 12:45 28.01978 32.07822 34108 ft 525 kts 122°
2026-04-30 12:46 28.00217 32.11444 33659 ft 525 kts 120°
2026-04-30 12:46 27.98506 32.15086 33136 ft 524 kts 120°
2026-04-30 12:46 27.96790 32.18721 32599 ft 523 kts 120°
2026-04-30 12:46 27.95061 32.22338 32030 ft 522 kts 120°
2026-04-30 12:47 27.93329 32.25934 31419 ft 521 kts 120°
2026-04-30 12:47 27.91593 32.29526 30784 ft 520 kts 121°
2026-04-30 12:47 27.89859 32.33112 30141 ft 519 kts 121°
2026-04-30 12:47 27.88134 32.36677 29451 ft 514 kts 121°
2026-04-30 12:48 27.86425 32.40207 28731 ft 509 kts 121°
2026-04-30 12:48 27.84736 32.43694 28045 ft 504 kts 121°
2026-04-30 12:48 27.83057 32.47152 27374 ft 499 kts 121°
2026-04-30 12:48 27.81396 32.50575 26717 ft 494 kts 121°
2026-04-30 12:49 27.79745 32.53961 26076 ft 489 kts 122°
2026-04-30 12:49 27.78003 32.57244 25456 ft 484 kts 123°
2026-04-30 12:49 27.76264 32.60435 24853 ft 480 kts 123°
2026-04-30 12:49 27.74522 32.63631 24247 ft 476 kts 124°
2026-04-30 12:50 27.72800 32.66803 23660 ft 472 kts 123°
2026-04-30 12:50 27.71091 32.69955 22998 ft 468 kts 123°
2026-04-30 12:50 27.69395 32.73079 22312 ft 464 kts 123°
2026-04-30 12:50 27.67722 32.76167 21658 ft 460 kts 123°
2026-04-30 12:51 27.66053 32.79246 21006 ft 457 kts 123°
2026-04-30 12:51 27.64400 32.82291 20374 ft 453 kts 122°
2026-04-30 12:51 27.63313 32.84292 19954 ft 450 kts 122°
2026-04-30 12:51 27.61157 32.88256 19146 ft 445 kts 122°
2026-04-30 12:52 27.59544 32.91222 18543 ft 442 kts 122°
2026-04-30 12:52 27.57944 32.94159 17899 ft 437 kts 121°
2026-04-30 12:52 27.56357 32.97069 17232 ft 433 kts 121°
2026-04-30 12:52 27.54788 32.99946 16580 ft 429 kts 121°
2026-04-30 12:53 27.53734 33.01878 16138 ft 426 kts 121°
2026-04-30 12:53 27.52204 33.04681 15514 ft 422 kts 121°
2026-04-30 12:53 27.50673 33.07484 14906 ft 419 kts 121°
2026-04-30 12:53 27.49149 33.10271 14289 ft 415 kts 121°
2026-04-30 12:54 27.47639 33.13032 13690 ft 411 kts 121°
2026-04-30 12:54 27.46148 33.15756 13092 ft 406 kts 122°
2026-04-30 12:54 27.44680 33.18437 12575 ft 399 kts 122°
2026-04-30 12:54 27.43240 33.21064 12159 ft 390 kts 122°
2026-04-30 12:55 27.41832 33.23633 11772 ft 381 kts 122°
2026-04-30 12:55 27.40455 33.26144 11392 ft 373 kts 122°
2026-04-30 12:55 27.39111 33.28593 11083 ft 363 kts 122°
2026-04-30 12:55 27.37797 33.30985 10800 ft 353 kts 122°
2026-04-30 12:56 27.36540 33.33274 10530 ft 343 kts 122°
2026-04-30 12:56 27.35301 33.35528 10262 ft 334 kts 122°
2026-04-30 12:56 27.34094 33.37722 9998 ft 325 kts 122°
2026-04-30 12:56 27.32914 33.39865 9729 ft 318 kts 122°
2026-04-30 12:57 27.31759 33.41962 9411 ft 315 kts 122°
2026-04-30 12:57 27.30613 33.44041 9050 ft 311 kts 122°
2026-04-30 12:57 27.29482 33.46094 8676 ft 307 kts 122°
2026-04-30 12:57 27.28366 33.48120 8298 ft 303 kts 122°
2026-04-30 12:58 27.27265 33.50119 7941 ft 299 kts 122°
2026-04-30 12:58 27.26175 33.52092 7623 ft 294 kts 122°
2026-04-30 12:58 27.25106 33.54026 7334 ft 288 kts 122°
2026-04-30 12:58 27.24058 33.55923 7069 ft 281 kts 122°
2026-04-30 12:59 27.23056 33.57737 6801 ft 273 kts 122°
2026-04-30 12:59 27.22064 33.59531 6583 ft 267 kts 122°
2026-04-30 12:59 27.21084 33.61302 6432 ft 269 kts 122°
2026-04-30 12:59 27.20103 33.63077 6273 ft 267 kts 122°
2026-04-30 13:00 27.19053 33.64785 5946 ft 263 kts 135°
2026-04-30 13:00 27.17543 33.65834 5575 ft 253 kts 165°
2026-04-30 13:00 27.15856 33.66331 5207 ft 249 kts 170°
2026-04-30 13:00 27.14177 33.66766 4859 ft 245 kts 169°
2026-04-30 13:01 27.12563 33.67199 4656 ft 231 kts 169°
2026-04-30 13:01 27.11037 33.67620 4416 ft 221 kts 168°
2026-04-30 13:01 27.09591 33.68030 4152 ft 213 kts 168°
2026-04-30 13:01 27.08160 33.68451 3892 ft 207 kts 168°
2026-04-30 13:02 27.06808 33.68867 3611 ft 202 kts 167°
2026-04-30 13:02 27.05478 33.69317 3219 ft 198 kts 158°
2026-04-30 13:02 27.04341 33.70118 2830 ft 189 kts 134°
2026-04-30 13:02 27.03577 33.71248 2506 ft 177 kts 110°
2026-04-30 13:03 27.03267 33.72537 2320 ft 167 kts 85°
2026-04-30 13:03 27.03375 33.73816 2147 ft 165 kts 71°
2026-04-30 13:03 27.03617 33.75073 1979 ft 164 kts 68°
2026-04-30 13:03 27.03896 33.76297 1845 ft 161 kts 67°
2026-04-30 13:04 27.04210 33.77494 1810 ft 158 kts 63°
2026-04-30 13:04 27.04669 33.78591 1750 ft 152 kts 50°
2026-04-30 13:04 27.05316 33.79494 1608 ft 146 kts 38°
2026-04-30 13:04 27.06082 33.80201 1543 ft 140 kts 32°
2026-04-30 13:05 27.06886 33.80810 1545 ft 140 kts 24°
2026-04-30 13:05 27.07808 33.81228 1566 ft 146 kts 14°
2026-04-30 13:05 27.08801 33.81479 1544 ft 147 kts
2026-04-30 13:06 27.10812 33.81204 1248 ft 150 kts 345°
2026-04-30 13:06 27.11821 33.80871 1004 ft 152 kts 345°
2026-04-30 13:06 27.12830 33.80581 803 ft 146 kts 348°
2026-04-30 13:06 27.13791 33.80296 576 ft 139 kts 352°
2026-04-30 13:07 27.14725 33.80040 381 ft 139 kts 348°
2026-04-30 13:07 27.15675 33.79753 236 ft 143 kts 349°
2026-04-30 13:07 27.16621 33.79471 124 ft 131 kts 349°
2026-04-30 13:07 27.17596 33.79204 377 ft 167 kts 349°
2026-04-30 13:08 27.18793 33.78875 1516 ft 181 kts 346°
2026-04-30 13:08 27.20043 33.78479 2152 ft 197 kts 345°
2026-04-30 13:08 27.21424 33.78066 2714 ft 212 kts 345°
2026-04-30 13:08 27.22888 33.77644 3379 ft 223 kts 344°
2026-04-30 13:09 27.24404 33.77241 3822 ft 225 kts 344°
2026-04-30 13:09 27.25948 33.76861 4207 ft 230 kts 345°
2026-04-30 13:09 27.27534 33.76488 4591 ft 235 kts 344°
2026-04-30 13:09 27.29138 33.76103 4910 ft 235 kts 336°
2026-04-30 13:10 27.30477 33.75127 4995 ft 229 kts 309°
2026-04-30 13:10 27.31186 33.73563 5010 ft 227 kts 281°
2026-04-30 13:10 27.31106 33.71790 5013 ft 232 kts 259°
2026-04-30 13:10 27.30630 33.70079 5012 ft 233 kts 253°
2026-04-30 13:11 27.29712 33.68563 4999 ft 242 kts 225°
2026-04-30 13:11 27.28193 33.67685 4976 ft 250 kts 196°
2026-04-30 13:11 27.26446 33.67477 4890 ft 254 kts 186°
2026-04-30 13:11 27.24686 33.67437 4746 ft 253 kts 185°
2026-04-30 13:12 27.22914 33.67435 4585 ft 255 kts 184°
2026-04-30 13:12 27.21134 33.67428 4411 ft 256 kts 184°
2026-04-30 13:12 27.19353 33.67574 4235 ft 260 kts 169°
2026-04-30 13:13 27.15884 33.68768 3896 ft 261 kts 165°
2026-04-30 13:13 27.14180 33.69404 3737 ft 262 kts 164°
2026-04-30 13:13 27.10705 33.70654 3109 ft 261 kts 164°
2026-04-30 13:14 27.08982 33.71238 2807 ft 257 kts 164°
2026-04-30 13:14 27.07284 33.71795 2519 ft 249 kts 160°
2026-04-30 13:14 27.05183 33.74260 2070 ft 207 kts 95°
2026-04-30 13:15 27.05205 33.75767 1814 ft 185 kts 76°
2026-04-30 13:15 27.05542 33.78432 1563 ft 161 kts 74°
2026-04-30 13:15 27.05704 33.79603 1495 ft 145 kts 67°
2026-04-30 13:16 27.06120 33.80615 1465 ft 143 kts 45°
2026-04-30 13:16 27.06908 33.81261 1537 ft 144 kts 17°
2026-04-30 13:16 27.07907 33.81581 1578 ft 151 kts 13°
2026-04-30 13:17 27.09966 33.81452 1411 ft 150 kts 345°
2026-04-30 13:17 27.10975 33.81115 1202 ft 152 kts 348°
2026-04-30 13:17 27.12932 33.80544 751 ft 140 kts 350°
2026-04-30 13:18 27.13856 33.80268 557 ft 135 kts 350°
2026-04-30 13:18 27.15724 33.79738 229 ft 144 kts 349°
2026-04-30 13:18 27.16686 33.79452 122 ft 134 kts 349°
2026-04-30 13:19 27.17639 33.79184 326 ft 161 kts 351°
2026-04-30 13:19 27.18731 33.78892 1333 ft 167 kts 351°
2026-04-30 13:19 27.19864 33.78569 1995 ft 175 kts 345°
2026-04-30 13:19 27.21094 33.78179 2452 ft 193 kts 344°
2026-04-30 13:20 27.22462 33.77761 2799 ft 212 kts 344°
2026-04-30 13:20 27.23767 33.77002 3121 ft 214 kts 317°
2026-04-30 13:20 27.24528 33.75569 3485 ft 218 kts 288°
2026-04-30 13:20 27.24512 33.73861 3865 ft 226 kts 258°
2026-04-30 13:21 27.23712 33.72333 4254 ft 236 kts 229°
2026-04-30 13:21 27.22295 33.71371 4558 ft 245 kts 201°
2026-04-30 13:21 27.20590 33.71104 4494 ft 250 kts 187°
2026-04-30 13:22 27.17061 33.71114 4147 ft 255 kts 184°
2026-04-30 13:22 27.15318 33.71129 3895 ft 246 kts 184°
2026-04-30 13:22 27.12048 33.71094 3488 ft 223 kts 184°
2026-04-30 13:23 27.10521 33.71133 3244 ft 218 kts 172°
2026-04-30 13:23 27.07762 33.72223 2753 ft 206 kts 138°
2026-04-30 13:24 27.06690 33.74922 2359 ft 183 kts 80°
2026-04-30 13:24 27.07192 33.77635 2046 ft 176 kts 64°
2026-04-30 13:25 27.07930 33.80109 1785 ft 141 kts 54°
2026-04-30 13:25 27.09373 33.81166 1292 ft 123 kts 11°
2026-04-30 13:26 27.11977 33.80819 835 ft 126 kts 351°
2026-04-30 13:26 27.13697 33.80320 593 ft 130 kts 350°
2026-04-30 13:27 27.15528 33.79792 275 ft 137 kts 348°
2026-04-30 13:28 27.17522 33.79206 104 ft 32 kts 346°
2026-04-30 13:28 27.17878 33.79171 104 ft 27 kts 13°
2026-04-30 13:28 27.18057 33.79226 104 ft 22 kts
2026-04-30 13:29 27.18353 33.79159 105 ft 23 kts 346°
2026-04-30 13:29 27.18677 33.79062 101 ft 25 kts 345°
2026-04-30 13:30 27.18957 33.79118 87 ft 13 kts 75°
2026-04-30 13:31 27.19005 33.79313 65 ft 13 kts 75°
2026-04-30 13:31 27.19082 33.79627 66 ft 16 kts 75°
2026-04-30 13:32 27.19146 33.79892 60 ft 14 kts 97°
2026-04-30 13:32 27.18969 33.79943 59 ft 15 kts 165°
2026-04-30 13:33 27.18756 33.80003 57 ft 17 kts 166°
2026-04-30 13:33 27.18518 33.80078 55 ft 19 kts 164°
2026-04-30 13:34 27.18387 33.80115 56 ft 20 kts 166°
2026-04-30 13:34 27.17939 33.80247 56 ft 21 kts 165°
2026-04-30 13:35 27.17831 33.80279 57 ft 10 kts 158°
2026-04-30 13:35 27.17842 33.80453 63 ft 14 kts 75°
2026-04-30 13:36 27.17939 33.80498 61 ft 8 kts 346°
2026-04-30 13:36 27.17981 33.80480 61 ft 5 kts 305°
2026-04-30 13:36 27.17964 33.80416 59 ft 1 kts 253°
2026-04-30 13:37 27.17963 33.80414 62 ft 0 kts 254°